Flag for Russia Weather past 2 weeks in Volgograd, Russia

Now
86 °F

Sunny.


Feels Like: 83 °F
Forecast: 68 / 87 °F
Wind: No wind

Location: Volgograd Airport

Current Time: Jul 24, 2014 at 5:47:37 PM

Latest Report: Jul 24, 2014 at 5:00 PM


Visibility: 10 mi

Pressure: 29.89 "Hg

Humidity: 19%

Dew point: 39 °F

Location of VolgogradLocation

Historic Weather in Volgograd — Graph

°F

Volgograd temperature yesterday

Maximum temperature yesterday: 86 °F (at 4:30 PM)
Minimum temperature yesterday: 61 °F (at 5:00 AM)
Average temperature yesterday: 75 °F

Past Weeks' High & Low Weather Summary

 TemperatureHumidityPressure
High97 °F (Jul 17, 3:00 PM)83% (Jul 22, 7:00 PM)30.12 "Hg (Jul 22, 7:00 PM)
Low55 °F (Jul 10, 5:00 AM)11% (Jul 17, 3:30 PM)29.71 "Hg (Jul 9, 5:00 PM)
Average77 °F32%29.93 "Hg
* Reported Jul 9 5:00 PM — Jul 24 4:30 PM, Volgograd, Weather by CustomWeather, © 2014

Note: Actual official high and low records may vary slightly from our data, if they occured in-between our weather recording intervals... More about our weather records

Advertising

Volgograd weather history for previous 24 hours

 ConditionsComfort  
Time TempWeatherWind HumidityBarometerVisibility
4:30 PM
Jul 24
86 °FPassing clouds.3 mph19%29.89 "HgN/A
4:00 PM84 °FSunny.3 mph22%29.89 "Hg10 mi
3:30 PM84 °FPassing clouds.3 mph20%29.92 "HgN/A
3:00 PM84 °FPassing clouds.3 mph20%29.92 "HgN/A
2:30 PM82 °FPassing clouds.6 mph21%29.92 "HgN/A
2:00 PM84 °FSunny.8 mph20%29.92 "Hg10 mi
1:30 PM82 °FPassing clouds.8 mph21%29.92 "HgN/A
1:00 PM82 °FSunny.8 mph23%29.95 "Hg10 mi
12:30 PM84 °FSunny.8 mph20%29.92 "Hg10 mi
12:00 PM84 °FSunny.6 mph20%29.95 "Hg10 mi
11:30 AM84 °FPassing clouds.8 mph20%29.95 "HgN/A
11:00 AM82 °FPassing clouds.10 mph23%29.95 "HgN/A
10:30 AM81 °FSunny.13 mph23%29.95 "Hg10 mi
10:00 AM81 °FSunny.13 mph26%29.95 "Hg10 mi
9:30 AM81 °FSunny.10 mph26%29.95 "Hg10 mi
9:00 AM77 °FSunny.10 mph32%29.95 "Hg10 mi
8:30 AM75 °FSunny.8 mph36%29.95 "Hg10 mi
8:00 AM73 °FSunny.8 mph41%29.95 "Hg10 mi
7:30 AM72 °FSunny.8 mph44%29.95 "Hg10 mi
7:00 AM70 °FSunny.8 mph46%29.95 "Hg10 mi
6:30 AM68 °FSunny.8 mph49%29.95 "Hg10 mi
6:00 AM68 °FSunny.8 mph46%29.95 "Hg10 mi
5:30 AM68 °FSunny.8 mph49%29.95 "Hg10 mi
5:00 AM68 °FClear.8 mph53%29.95 "Hg10 mi
4:30 AM68 °FClear.8 mph46%29.95 "Hg10 mi
4:00 AM68 °FClear.8 mph43%29.95 "Hg10 mi
3:30 AM68 °FClear.8 mph40%29.95 "Hg10 mi
3:00 AM70 °FClear.10 mph35%29.95 "Hg10 mi
2:30 AM70 °FClear.10 mph35%29.95 "Hg10 mi
2:00 AM70 °FClear.8 mph33%29.95 "Hg10 mi
1:30 AM70 °FClear.8 mph31%29.95 "Hg10 mi
1:00 AM70 °FClear.10 mph33%29.95 "Hg10 mi
12:30 AM68 °FClear.10 mph35%29.95 "Hg10 mi
12:00 AM72 °FClear.8 mph31%29.95 "Hg10 mi
11:30 PM
Jul 23
72 °FClear.6 mph33%29.95 "Hg10 mi
11:00 PM72 °FClear.6 mph33%29.95 "Hg10 mi
10:30 PM73 °FClear.6 mph31%29.95 "Hg10 mi
10:00 PM73 °FClear.6 mph33%29.95 "Hg10 mi
9:30 PM75 °FClear.6 mph31%29.95 "Hg10 mi
9:00 PM75 °FClear.6 mph34%29.95 "Hg10 mi
8:30 PM79 °FSunny.6 mph30%29.95 "Hg10 mi
8:00 PM81 °FSunny.6 mph26%29.95 "Hg10 mi
7:30 PM82 °FPassing clouds.6 mph25%29.95 "HgN/A
7:00 PM84 °FSunny.6 mph23%29.95 "Hg10 mi
6:30 PM84 °FPassing clouds.3 mph25%29.95 "HgN/A
6:00 PM84 °FSunny.3 mph23%29.95 "Hg10 mi
5:30 PM84 °FPassing clouds.6 mph25%29.95 "HgN/A
5:00 PM84 °FPassing clouds.6 mph23%29.95 "HgN/A
Weather by CustomWeather, © 2014

See weather overviewHow to use our weather pages